Printer-friendly version

IAU Minor Planet Center

Minor Planet Center

MPEC 2002-C46 : 2002 CW11

The following Minor Planet Electronic Circular may be linked-to from your own Web pages, but must not otherwise be redistributed electronically.


Read MPEC 2002-C45 Read MPEC 2002-C47


M.P.E.C. 2002-C46                                Issued 2002 Feb. 8, 19:07 UT

     The Minor Planet Electronic Circulars contain information on unusual
         minor planets and routine data on comets.  They are published
   on behalf of Commission 20 of the International Astronomical Union by the
          Minor Planet Center, Smithsonian Astrophysical Observatory,
                          Cambridge, MA 02138, U.S.A.

             Prepared using the Tamkin Foundation Computer Network

                              MPC@CFA.HARVARD.EDU
          URL http://cfa-www.harvard.edu/iau/mpc.html  ISSN 1523-6714

                                   2002 CW11

Observations:
     K02C11W  C2002 02 07.32027 10 15 49.83 +12 31 18.4          19.1        704
     K02C11W  C2002 02 07.33472 10 15 37.02 +12 33 34.0          19.9        704
     K02C11W  C2002 02 07.34907 10 15 24.28 +12 35 45.7          19.6        704
     K02C11W  C2002 02 07.37814 10 14 58.60 +12 40 13.2          19.4        704
     K02C11W*tC2002 02 07.40456 10 14 36.29 +12 44 22.5          19.5 V      291
     K02C11W tC2002 02 07.42541 10 14 18.01 +12 47 31.4          19.7 V      291
     K02C11W tC2002 02 07.46825 10 13 40.77 +12 53 57.8          19.6 V      291
     K02C11W tC2002 02 07.47413 10 13 35.78 +12 54 50.0          19.2 V      291
     K02C11W tC2002 02 07.48015 10 13 30.55 +12 55 44.3          19.4 V      291
     K02C11W tC2002 02 07.49603 10 13 17.08 +12 58 05.1          19.5 V      291
     K02C11W tC2002 02 07.50298 10 13 11.29 +12 59 05.9          20.0 V      291
     K02C11W tC2002 02 07.50932 10 13 05.93 +13 00 02.5          19.6 V      291
     K02C11W  C2002 02 08.29035 10 03 09.75 +14 54 28.6          19.1 R      649
     K02C11W  C2002 02 08.29346 10 03 07.12 +14 54 55.6          19.4 R      649
     K02C11W  C2002 02 08.29662 10 03 04.50 +14 55 22.1          19.5 R      649
     K02C11W tC2002 02 08.39940 10 01 41.55 +15 10 13.4          20.4 V      691
     K02C11W tC2002 02 08.40754 10 01 34.76 +15 11 21.0          19.1 V      691
     K02C11W tC2002 02 08.41568 10 01 28.03 +15 12 28.2          19.8 V      691

Observer details:
291 LPL/Spacewatch II.  Observer T. H. Bressi.  1.8-m Spacewatch telescope.
649 Powell Observatory, Louisburg.  Observers K. Smalley, R. Fredrick,
    R. Trentman, S. Granger.  0.75-m Newtonian + CCD.
691 Steward Observatory, Kitt Peak.  Observer  A. F. Tubbiolo.  0.9-m
    Spacewatch telescope.
704 Lincoln Laboratory ETS, New Mexico.  Observers M. Blythe, F. Shelly,
    M. Bezpalko, R. Huber, L. Manguso, S. Adams, J. Piscitelli.  Measurers
    J. Stuart, R. Sayer, J. B. Evans, H. Viggh.  1.0-m f/2.15 reflector + CCD.

Orbital elements:
2002 CW11
Epoch 2002 Jan. 26.0 TT = JDT 2452300.5                 MPC
M 121.08009              (2000.0)            P               Q
n   1.22550603     Peri.  210.20608     +0.97732805     +0.20853587
a   0.8648200      Node   137.70680     -0.18172876     +0.91499060
e   0.2256353      Incl.    3.12144     -0.10864867     +0.34540555
P   0.80           H   26.1           G   0.15
From 18 observations 2002 Feb. 7-8.

Ephemeris:
2002 CW11                a,e,i = 0.86, 0.23, 3                   q = 0.6697
Date    TT    R. A. (2000) Decl.     Delta      r     Elong.  Phase     V
2002 01 26    13 11.25   -22 11.6    0.039    0.992   100.6    77.2    21.7
2002 01 27    12 58.53   -20 04.6    0.038    0.995   105.2    72.7    21.5
2002 01 28    12 45.25   -17 44.7    0.037    0.998   110.0    68.0    21.3
2002 01 29    12 31.46   -15 12.1    0.035    1.000   115.1    63.0    21.1
2002 01 30    12 17.23   -12 27.3    0.035    1.003   120.5    57.8    20.9
2002 01 31    12 02.63   -09 32.1    0.034    1.006   126.0    52.4    20.7
2002 02 01    11 47.77   -06 28.5    0.034    1.008   131.7    46.8    20.5
2002 02 02    11 32.76   -03 19.6    0.033    1.010   137.5    41.2    20.4
2002 02 03    11 17.74   -00 08.9    0.034    1.013   143.4    35.5    20.2
2002 02 04    11 02.84   +03 00.0    0.034    1.015   149.2    29.9    20.1
2002 02 05    10 48.19   +06 03.5    0.035    1.017   154.8    24.4    20.0
2002 02 06    10 33.91   +08 58.5    0.035    1.020   160.2    19.1    19.9
2002 02 07    10 20.11   +11 42.6    0.037    1.022   165.3    14.1    19.8
2002 02 08    10 06.88   +14 14.3    0.038    1.024   170.0     9.6    19.7
2002 02 09    09 54.30   +16 32.8    0.039    1.026   173.8     5.9    19.6
2002 02 10    09 42.41   +18 37.7    0.041    1.028   175.4     4.5    19.6
2002 02 11    09 31.24   +20 29.7    0.043    1.030   173.5     6.2    19.8
2002 02 12    09 20.80   +22 09.2    0.045    1.031   170.3     9.3    20.0
2002 02 13    09 11.09   +23 37.4    0.047    1.033   167.0    12.4    20.3
2002 02 14    09 02.09   +24 55.1    0.049    1.035   163.8    15.5    20.5
2002 02 15    08 53.78   +26 03.6    0.052    1.037   160.7    18.3    20.7
2002 02 16    08 46.13   +27 03.8    0.054    1.038   157.8    21.0    20.9
2002 02 17    08 39.10   +27 56.7    0.057    1.040   155.1    23.5    21.1
2002 02 18    08 32.65   +28 43.2    0.059    1.041   152.6    25.9    21.2
2002 02 19    08 26.75   +29 24.1    0.062    1.043   150.2    28.1    21.4
2002 02 20    08 21.37   +30 00.1    0.065    1.044   147.9    30.2    21.6
2002 02 21    08 16.45   +30 31.7    0.068    1.046   145.8    32.1    21.7
2002 02 22    08 11.98   +30 59.6    0.070    1.047   143.8    33.9    21.8
2002 02 23    08 07.91   +31 24.2    0.073    1.048   141.9    35.7    22.0
2002 02 24    08 04.22   +31 45.9    0.076    1.049   140.0    37.3    22.1
2002 02 25    08 00.88   +32 05.0    0.079    1.050   138.3    38.8    22.2
2002 02 26    07 57.85   +32 21.9    0.082    1.051   136.6    40.3    22.4
2002 02 27    07 55.12   +32 36.9    0.085    1.052   135.1    41.7    22.5
2002 02 28    07 52.66   +32 50.1    0.088    1.053   133.5    43.0    22.6
2002 03 01    07 50.45   +33 01.8    0.091    1.054   132.1    44.3    22.7
2002 03 02    07 48.47   +33 12.0    0.094    1.055   130.7    45.5    22.8
2002 03 03    07 46.71   +33 21.1    0.097    1.056   129.3    46.6    22.9
2002 03 04    07 45.14   +33 29.0    0.100    1.056   128.0    47.7    23.0
2002 03 05    07 43.77   +33 35.9    0.104    1.057   126.7    48.8    23.1
2002 03 06    07 42.57   +33 41.9    0.107    1.058   125.5    49.8    23.2
2002 03 07    07 41.54   +33 47.1    0.110    1.058   124.3    50.8    23.3

Timothy B. Spahr             (C) Copyright 2002 MPC           M.P.E.C. 2002-C46

Read MPEC 2002-C45 Read MPEC 2002-C47


Our Web policy. Index to the CBAT/MPC/ICQ pages.


Valid HTML 4.01!